User: anonymous
Location: Hepcat Sky Observatory
(29.9800°N, 95.6500°W)
Time: 18:54:36
(UTC-05:00)
Language:

ALOS - Orbit

View from above orbital plane
View from above orbital plane
View from above satellite
View from above satellite

Ground track
Ground track

The orbit data is extracted from the following two-line orbital elements,

1 28931U 06002A   14114.57144199  .00001081  00000-0  22908-3 0    98
2 28931 097.9883 174.5037 0001031 066.8403 062.4127 14.61086414439494
Epoch (UTC): 24 April 2014 13:42:52
Eccentricity: 0.0001031
inclination: 97.9883°
perigee height: 689 km
apogee height: 690 km
right ascension of ascending node: 174.5037°
argument of perigee: 66.8403°
revolutions per day: 14.61086414
mean anomaly at epoch: 62.4127°
orbit number at epoch: 43949

The dashed part of the orbit path shows where the satellite is in the earth's shadow,  

DLR